RH
26 60 55 55 63 60 55 40 37 30 56 52 50 51 51 68 63 63 82 63 58 64 69 57 57 59 62 65 66 69 74 74 70 63 57 52 41 30 23 18 14 12 11 12 14 16 18 21 28
26 53 56 58 61 62 51 42 37 33 74 63 55 66 70 78 97 99 84 66 61 58 56 57 61 64 65 65 71 82 73 56 41 31 25 21 18 14 11 10 11 12 12 13 13 13 14 14 14
35 50 60 66 68 64 55 42 34 68 71 73 77 74 79 98 98 98 71 73 68 59 58 60 65 68 67 72 86 79 59 32 25 21 17 13 11 10 11 12 13 12 11 10 10 10 10 10 11
45 52 67 77 79 60 45 39 34 82 72 75 75 82 87 92 95 74 75 82 70 60 60 63 68 69 80 82 77 61 34 25 20 15 13 10 11 12 13 12 11 10 10 9 9 9 9 9 9
58 62 81 86 76 63 49 51 56 74 69 79 74 96 98 96 86 73 80 85 68 63 65 68 71 78 79 74 59 36 27 20 15 13 12 11 12 13 13 11 11 10 10 9 8 8 7 7 8
63 80 92 84 78 60 52 49 65 52 74 79 83 93 98 91 85 80 80 78 66 65 71 75 84 87 79 64 41 28 20 15 14 12 12 13 13 13 12 12 11 9 9 8 8 7 7 8 10
66 88 81 75 76 59 52 48 53 57 77 83 81 86 98 99 86 82 79 70 71 72 77 93 92 84 74 50 32 20 16 14 14 14 14 15 13 12 12 10 10 9 9 9 8 8 7 7 10
71 78 81 77 74 64 50 51 45 52 76 78 74 83 97 98 86 79 73 73 75 80 86 92 88 80 68 45 26 18 16 14 14 16 16 13 13 13 11 11 12 12 10 10 9 8 8 7 7
73 84 80 73 76 56 55 48 52 55 75 83 76 78 85 95 85 81 78 79 81 89 94 94 87 79 61 40 22 20 16 16 16 17 14 14 14 12 14 15 14 13 12 11 10 9 8 7 7
72 83 80 60 58 58 52 53 60 75 90 91 89 78 86 88 87 84 86 85 90 93 95 94 88 78 55 43 22 21 17 17 18 16 14 14 14 16 17 17 16 15 14 12 10 10 10 9 7
80 79 67 61 58 54 56 56 59 76 88 80 82 89 90 92 91 93 93 85 84 84 89 93 88 71 57 43 23 20 18 18 19 16 15 15 17 18 18 18 18 17 14 12 12 11 10 9 9
82 69 60 60 62 47 50 43 57 71 68 66 69 61 84 87 97 97 88 84 81 85 88 91 85 66 61 43 24 21 20 20 20 17 16 16 19 19 19 19 19 18 15 14 14 13 13 12 11
81 69 59 62 59 52 44 40 40 52 62 61 78 97 99 99 99 89 78 83 85 85 86 85 71 70 67 47 27 24 21 22 21 18 18 18 20 20 21 20 20 20 16 16 17 16 15 14 12
69 67 56 59 54 51 47 40 48 43 61 72 87 99 100 99 90 88 85 85 89 85 78 72 71 76 71 53 32 27 23 22 23 21 20 20 20 22 22 21 21 21 17 18 19 18 17 16 14
74 71 62 60 54 51 49 50 53 48 64 99 98 96 99 99 90 88 82 84 86 86 84 83 82 80 75 60 41 32 26 24 24 23 22 22 22 23 22 21 23 21 19 20 21 21 20 20 18
78 70 80 58 54 42 45 58 46 46 76 99 86 98 95 92 89 89 84 90 86 85 89 91 90 81 82 69 53 42 31 28 26 26 25 25 24 24 22 21 26 20 21 22 23 24 24 24 24
80 88 81 60 56 43 54 57 49 66 93 94 85 98 99 100 97 91 93 100 91 93 94 91 88 86 85 76 63 53 39 33 30 28 29 28 28 26 22 23 28 21 23 27 27 27 27 28 30
99 76 72 68 52 47 64 61 50 93 98 77 80 89 71 89 67 68 88 99 100 99 99 95 90 90 88 77 67 60 52 38 34 32 32 30 30 27 23 28 25 25 30 31 30 29 31 32 33
75 80 69 61 48 51 54 57 53 83 98 98 59 92 68 70 65 59 79 86 92 99 98 90 89 86 83 70 68 65 48 40 37 34 33 32 32 27 25 32 25 31 32 30 30 31 32 32 31
78 92 68 47 43 51 61 56 50 81 89 97 89 90 100 86 73 56 57 87 89 89 97 88 87 85 77 74 69 54 43 42 41 38 35 35 33 26 36 25 30 33 32 32 31 29 28 28 33
71 77 56 50 52 52 59 61 56 44 57 82 88 82 85 74 67 55 51 54 76 88 92 90 90 84 78 77 70 52 44 45 44 40 38 37 30 37 27 31 32 32 29 26 26 27 26 26 28
64 48 47 46 62 77 56 74 57 48 42 50 82 75 63 53 67 71 74 78 76 93 93 82 85 78 78 75 68 52 45 45 42 39 40 33 38 28 32 32 31 28 27 27 26 26 23 23 26
61 43 48 51 68 70 56 72 58 42 51 48 58 80 75 52 56 69 89 85 84 79 80 82 75 54 46 51 55 50 48 46 41 40 35 40 29 33 32 30 30 29 27 24 21 21 23 25 28
44 50 52 65 73 79 66 65 55 55 45 42 43 48 79 98 98 97 92 85 80 76 72 58 35 33 34 38 48 52 54 43 41 39 36 32 34 33 32 32 29 26 23 22 25 28 30 30 31
47 60 90 85 85 75 56 65 58 43 44 45 43 36 43 78 90 83 78 78 70 58 41 31 30 35 38 44 54 56 49 44 45 31 34 35 34 35 34 31 27 24 25 28 29 30 32 33 35
46 55 81 82 80 65 46 61 62 43 48 54 48 47 44 60 81 80 71 58 44 34 32 35 37 41 47 52 56 52 48 47 33 36 37 36 36 36 33 29 26 27 30 30 30 30 30 30 33
45 56 50 73 69 65 63 43 42 48 54 59 55 45 52 61 60 53 47 42 42 44 43 43 43 48 49 51 53 54 43 39 40 40 38 39 38 35 32 30 30 31 32 32 32 32 32 32 33
37 45 55 71 62 51 60 50 65 60 48 57 67 62 59 56 54 51 52 56 54 50 45 45 47 50 56 60 52 41 42 42 41 41 41 40 37 36 35 34 34 35 35 35 34 34 35 34 34
49 49 52 54 59 55 54 63 63 56 52 53 59 57 56 54 56 58 59 56 53 53 53 52 52 54 50 44 43 43 43 44 45 45 43 42 40 40 40 39 38 37 37 36 36 36 36 35 35
48 46 43 57 37 54 55 63 46 48 52 53 54 55 58 58 60 60 57 53 47 42 39 37 38 41 42 44 45 48 49 49 50 48 47 46 45 45 44 43 43 44 43 43 42 42 40 40 38
Wind_Speed
18 12 5 6 2 1 3 4 1 2 3 4 16 6 8 3 3 2 17 26 26 25 21 16 14 13 11 10 9 8 7 5 4 2 1 2 4 6 7 7 8 8 7 7 8 8 9 10 10
16 12 6 3 3 4 5 3 4 3 2 16 16 12 4 3 4 10 25 25 25 23 20 17 15 13 11 9 8 7 4 3 3 3 4 5 5 6 7 7 8 9 10 11 12 12 11 11 12
13 13 6 3 4 10 4 5 5 4 11 5 6 5 4 5 7 24 24 29 26 22 19 17 15 12 10 9 8 4 3 4 5 5 6 6 6 7 8 9 11 12 12 12 12 13 13 13 13
11 8 2 4 7 5 5 2 5 11 1 3 10 8 6 4 23 18 28 27 24 21 19 16 14 12 10 8 4 3 4 5 5 6 6 6 7 8 10 11 13 13 13 13 14 14 14 14 14
13 4 3 4 7 3 4 1 10 8 5 5 3 6 6 16 11 23 27 26 24 22 19 16 13 11 10 6 4 3 4 5 6 6 7 7 8 10 11 12 12 13 13 13 14 15 15 15 15
6 2 4 12 6 5 3 3 8 5 6 9 6 10 8 11 19 27 25 24 23 21 19 16 14 11 8 5 4 4 4 5 6 7 7 8 9 10 11 11 12 13 13 14 15 16 16 16 16
4 2 3 5 6 5 3 8 6 7 7 5 12 7 8 16 24 25 23 24 22 20 19 17 15 10 7 5 4 4 4 5 6 7 8 8 9 10 10 11 13 15 16 17 17 17 18 18 18
5 2 5 2 11 8 5 8 4 8 5 11 15 6 8 24 30 26 24 24 22 20 17 16 13 9 6 4 4 4 5 5 6 7 8 8 9 10 11 13 14 15 17 18 19 19 19 19 18
6 1 5 6 6 8 2 4 3 4 11 8 13 9 7 31 32 30 29 26 23 20 18 15 12 9 6 5 4 4 5 5 7 8 8 9 9 10 12 14 15 17 19 20 20 20 19 19 18
4 3 5 2 2 3 3 2 4 4 7 5 10 10 16 36 34 33 33 30 26 23 19 15 12 8 6 4 3 4 5 6 7 7 8 8 9 11 13 14 16 18 19 19 19 19 19 18 18
6 4 3 2 2 4 2 1 2 3 4 10 16 19 32 36 35 32 29 27 25 22 18 16 12 10 6 4 3 3 4 5 6 7 7 8 9 11 12 14 16 18 18 18 18 18 19 19 19
3 7 6 1 5 5 3 5 3 7 4 8 11 22 40 38 35 31 27 25 24 21 16 15 13 10 6 4 3 2 4 5 6 6 7 8 8 9 11 13 16 17 18 19 19 19 19 18 20
3 5 14 12 7 8 6 4 5 7 10 7 15 26 37 36 33 30 25 22 21 18 16 15 13 10 6 4 2 1 3 4 5 6 6 7 7 8 11 13 15 17 18 18 19 19 20 22 22
12 5 11 2 5 8 3 4 3 8 11 11 21 30 35 35 33 31 28 23 22 18 15 14 12 9 6 4 2 0 2 3 4 5 6 6 7 8 11 12 15 16 17 18 19 20 21 22 22
2 4 2 6 6 4 5 4 5 5 11 17 21 25 31 33 35 30 26 23 20 17 14 12 10 8 6 4 3 1 2 3 4 5 5 6 7 9 10 12 14 15 16 16 16 16 18 18 19
3 4 3 2 10 5 1 5 6 7 12 17 19 24 29 32 32 27 25 25 21 18 15 12 10 7 6 5 4 3 3 3 4 5 5 6 8 9 10 11 13 15 15 15 16 18 17 18 19
1 3 5 4 12 4 4 4 3 7 10 15 18 22 21 23 27 21 21 22 20 17 14 10 8 8 7 6 5 4 5 4 5 5 5 6 8 9 9 10 13 14 13 15 17 18 20 19 18
1 0 2 4 4 6 4 7 5 5 10 14 16 14 20 22 17 10 12 17 17 16 12 9 8 8 8 7 6 5 6 6 5 5 6 7 8 8 8 10 12 12 13 15 16 17 18 19 18
8 4 4 5 4 4 7 5 6 2 5 8 15 9 18 24 20 11 12 14 14 12 12 9 6 7 8 8 6 6 6 6 6 6 6 7 8 8 8 10 11 12 14 16 18 18 18 18 19
4 6 6 3 2 3 6 5 4 2 4 7 15 15 12 21 19 13 8 11 11 12 13 11 11 10 9 9 7 6 6 6 6 6 7 6 7 7 9 10 10 13 14 16 17 18 19 19 20
4 7 4 3 2 4 5 1 2 1 3 6 11 17 9 6 14 16 20 25 20 18 15 14 13 12 11 10 8 7 7 6 6 6 7 6 6 8 9 10 12 14 16 17 18 18 19 19 18
3 6 3 0 2 4 1 3 4 3 3 2 5 10 8 11 6 15 22 24 19 19 16 15 15 13 12 11 11 10 9 7 6 6 6 6 6 7 9 12 14 15 17 17 18 18 19 19 19
4 2 4 3 3 3 2 3 2 1 5 4 7 12 19 13 15 20 22 20 21 17 18 13 13 12 12 12 12 11 8 7 6 5 4 4 5 8 10 12 14 16 17 17 17 17 17 18 18
3 3 2 4 2 2 3 2 2 4 4 3 6 15 18 21 25 24 21 20 16 16 13 11 11 11 10 10 11 10 8 6 5 3 3 3 6 8 11 14 16 17 17 16 16 16 16 17 18
1 4 4 4 4 2 3 2 5 3 3 3 3 7 13 16 19 19 18 18 16 11 9 8 8 8 8 9 9 8 6 4 3 2 3 5 7 10 13 15 16 16 15 16 16 17 17 18 18
2 3 5 3 3 3 1 4 4 2 7 6 7 7 11 17 18 17 16 14 10 8 6 7 7 6 7 6 6 4 4 3 3 3 5 8 11 14 16 17 17 17 17 17 18 19 20 20 20
3 0 3 6 2 2 2 5 5 3 3 7 2 12 14 16 17 16 14 11 8 7 7 6 6 5 4 4 4 3 3 2 4 6 9 11 14 15 16 17 18 19 19 19 19 20 20 20 20
1 4 2 2 4 3 3 3 4 2 1 2 6 11 14 15 14 14 13 11 9 8 7 6 6 5 4 4 3 1 2 4 7 9 11 13 14 16 17 18 18 19 19 20 21 21 21 21 22
1 1 4 3 3 3 3 5 4 4 2 4 6 11 15 16 15 15 13 11 9 9 8 6 6 5 4 3 1 1 4 6 8 10 12 13 15 16 17 18 19 21 22 22 23 23 23 24 24
2 4 4 4 2 1 2 4 2 2 2 7 9 11 13 15 16 15 14 13 11 8 7 6 6 5 3 1 1 3 5 7 10 12 14 15 17 18 19 20 21 22 23 24 25 25 26 27 27
Wind_Direction
224 226 197 172 180 84 227 247 268 240 182 157 144 163 173 119 163 191 148 158 160 157 155 154 148 141 134 126 116 103 90 92 84 77 32 350 344 348 349 349 349 349 346 341 333 327 321 313 303
211 211 197 187 175 183 229 214 210 225 164 128 127 118 112 115 135 141 147 155 160 155 153 152 147 140 133 123 107 97 89 57 46 40 29 16 8 0 358 358 356 354 349 342 336 330 324 318 313
196 188 180 189 185 203 217 209 186 132 133 161 120 108 118 136 148 148 152 153 159 155 152 149 144 138 128 115 111 109 53 43 42 33 24 17 11 8 7 0 356 355 356 353 349 342 339 334 326
179 177 170 213 203 229 196 183 181 145 208 167 143 98 107 152 147 154 153 155 158 154 151 147 142 135 126 126 123 78 49 44 35 26 18 17 14 9 5 4 5 4 1 358 353 349 346 341 336
179 156 193 210 205 266 257 213 168 153 146 153 136 126 104 136 154 154 154 156 160 154 150 145 142 141 134 131 117 76 53 37 32 28 23 21 13 9 8 8 8 4 1 1 358 354 350 347 342
179 159 197 209 208 229 245 191 154 161 147 156 103 116 146 146 154 153 156 157 160 154 150 146 143 143 139 134 105 76 51 38 32 29 24 18 15 15 14 10 8 8 7 8 3 359 355 351 349
160 150 194 194 180 205 221 177 176 164 151 180 145 124 151 161 158 156 156 158 159 156 154 149 154 151 147 126 97 71 55 39 32 28 23 21 22 20 18 14 15 13 11 9 4 2 358 356 355
173 104 171 168 183 213 195 177 196 166 182 155 166 162 173 173 162 157 156 159 161 160 159 156 156 153 147 126 99 71 51 41 32 31 29 29 30 24 24 23 19 14 10 9 6 3 360 357 354
156 114 207 176 172 202 171 179 196 190 150 166 182 158 190 164 162 160 159 162 164 162 164 161 160 157 152 132 109 74 52 41 35 34 37 35 30 31 30 23 17 14 13 10 6 3 0 358 356
150 184 205 225 192 276 323 192 177 167 152 173 173 171 169 164 168 166 165 164 166 165 166 166 163 162 154 140 114 73 54 41 37 41 43 37 37 33 26 20 15 16 13 9 6 4 2 358 358
168 189 227 281 8 359 296 225 304 173 214 202 188 167 166 169 171 170 170 168 168 168 166 168 168 166 164 149 125 79 54 43 41 44 40 38 35 30 21 16 14 13 10 9 8 6 4 1 360
188 178 207 276 20 11 347 318 287 220 224 214 199 183 171 173 173 174 174 173 170 168 172 172 172 173 171 162 145 95 58 45 38 37 35 33 30 21 12 11 11 9 8 9 8 8 5 4 4
267 204 210 235 317 330 326 273 250 248 230 228 180 172 172 172 179 182 179 178 176 173 171 173 176 176 176 175 169 94 48 41 35 29 27 24 17 7 5 5 7 6 7 8 7 8 5 5 5
199 178 229 267 273 310 325 287 191 231 214 184 180 173 175 178 187 183 184 185 183 176 172 175 177 181 178 197 204 185 28 19 20 16 13 8 1 357 358 358 3 4 5 6 6 9 7 5 2
119 178 311 220 193 265 320 276 223 229 194 170 179 175 176 187 187 189 188 191 188 181 183 182 186 186 193 215 228 269 338 355 357 357 357 353 349 348 349 354 358 359 4 6 6 10 9 4 7
96 120 177 250 158 235 47 281 263 217 194 177 182 181 189 187 190 190 195 195 190 192 195 190 189 201 208 229 254 286 307 335 339 336 341 341 339 339 341 351 351 357 1 3 2 2 6 6 5
298 177 202 301 198 149 171 263 309 197 203 175 176 184 177 177 185 193 193 197 195 193 195 200 203 208 220 238 258 279 299 312 316 314 318 327 330 333 338 343 349 354 353 359 360 355 354 360 2
206 73 213 222 217 178 157 263 306 223 214 179 192 188 176 172 167 173 197 200 203 196 187 193 214 220 230 241 255 275 290 294 296 295 304 318 324 326 330 339 344 346 350 351 348 349 350 351 356
140 252 248 211 236 131 185 262 284 194 230 177 172 227 167 146 146 145 188 211 207 213 204 209 228 241 238 245 254 271 282 287 284 285 295 308 317 319 327 334 337 343 344 341 339 343 345 346 346
151 269 279 250 170 116 168 249 292 164 248 186 168 222 203 174 176 177 196 211 209 217 217 218 226 244 243 249 259 267 277 280 279 283 290 300 306 312 322 332 337 338 337 335 334 337 339 341 343
188 205 233 187 145 60 120 307 274 313 204 178 164 169 216 135 187 186 186 225 228 216 218 218 230 243 245 247 259 264 265 272 280 278 279 290 301 315 325 332 333 331 331 331 331 333 333 334 336
251 201 246 111 77 153 39 210 250 233 212 222 187 175 182 183 220 210 205 196 204 209 211 220 233 237 239 249 255 256 259 266 263 250 270 287 305 320 329 331 330 329 328 328 328 328 329 329 329
233 155 197 128 111 87 334 84 234 180 206 206 175 186 199 185 207 221 197 189 198 197 219 224 238 241 244 245 246 249 257 255 247 250 259 294 315 323 325 324 323 323 322 323 323 324 326 325 324
342 91 79 56 94 60 304 115 270 191 203 165 184 192 189 185 189 188 172 186 200 207 214 228 240 243 235 234 236 238 245 247 241 250 277 301 309 313 318 321 321 320 321 322 323 324 325 324 321
214 63 21 21 22 201 311 40 238 235 208 218 230 185 186 183 174 172 176 191 197 209 217 228 230 221 207 208 219 231 246 236 239 246 280 297 305 311 315 317 318 318 318 320 322 324 324 321 319
195 163 140 202 187 213 276 212 258 266 296 293 258 198 168 171 175 172 174 180 183 188 190 189 180 183 183 190 213 217 228 236 235 275 299 310 315 315 318 320 319 318 317 318 319 321 321 319 317
186 282 146 103 25 68 235 284 318 337 2 23 108 163 154 150 156 155 154 152 155 151 149 143 139 157 156 169 188 208 228 254 297 314 316 316 316 315 317 317 316 316 316 316 316 316 315 315 315
206 161 80 11 132 229 283 265 223 262 8 61 100 138 138 139 142 142 138 138 135 128 118 118 125 129 148 171 177 199 291 317 318 317 316 317 315 316 315 314 313 312 313 313 313 314 314 314 314
118 8 46 112 130 178 174 251 207 214 230 128 126 136 136 136 134 133 128 121 120 119 122 128 122 127 139 146 137 315 314 317 319 320 320 319 316 315 314 314 313 313 312 312 311 311 311 310 309
307 173 152 120 222 228 145 276 359 313 12 177 138 134 134 134 130 126 122 121 121 117 108 106 112 124 134 114 338 315 315 319 322 324 323 322 321 319 318 316 315 314 312 311 310 309 308 307 305